TimeMDT,TemperatureF,Dew PointF,Humidity,Sea Level PressureIn,VisibilityMPH,Wind Direction,Wind SpeedMPH,Gust SpeedMPH,PrecipitationIn,Events,Conditions,WindDirDegrees,DateUTC
12:18 AM,19.4,17.6,93,30.17,10.0,East,4.6,-,N/A,,Overcast,80,2013-03-25 06:18:00
12:38 AM,15.8,14.0,93,30.18,10.0,SE,3.5,-,N/A,,Overcast,130,2013-03-25 06:38:00
12:58 AM,14.0,12.2,93,30.18,10.0,South,4.6,-,N/A,,Overcast,180,2013-03-25 06:58:00
1:18 AM,15.8,14.0,93,30.18,10.0,SSW,3.5,-,N/A,,Overcast,200,2013-03-25 07:18:00
1:38 AM,17.6,14.0,86,30.18,10.0,Calm,Calm,-,N/A,,Overcast,0,2013-03-25 07:38:00
1:57 AM,15.8,12.2,86,30.18,10.0,Calm,Calm,-,N/A,,Overcast,0,2013-03-25 07:57:00
2:18 AM,14.0,12.2,93,30.17,10.0,Calm,Calm,-,N/A,,Overcast,0,2013-03-25 08:18:00
2:38 AM,14.0,12.2,93,30.17,10.0,Calm,Calm,-,N/A,,Overcast,0,2013-03-25 08:38:00
2:58 AM,12.2,10.4,92,30.17,10.0,Calm,Calm,-,N/A,,Overcast,0,2013-03-25 08:58:00
3:18 AM,14.0,10.4,86,30.16,10.0,Calm,Calm,-,N/A,,Overcast,0,2013-03-25 09:18:00
3:37 AM,6.8,3.2,85,30.17,10.0,SSE,4.6,-,N/A,,Scattered Clouds,160,2013-03-25 09:37:00
3:58 AM,5.0,1.4,85,30.16,10.0,SE,3.5,-,N/A,,Scattered Clouds,140,2013-03-25 09:58:00
4:17 AM,5.0,3.2,92,30.16,10.0,SSE,4.6,-,N/A,,Clear,160,2013-03-25 10:17:00
4:38 AM,3.2,1.4,92,30.17,10.0,South,4.6,-,N/A,,Scattered Clouds,170,2013-03-25 10:38:00
4:58 AM,5.0,3.2,92,30.17,10.0,South,4.6,-,N/A,,Scattered Clouds,170,2013-03-25 10:58:00
5:18 AM,6.8,3.2,85,30.18,10.0,SE,4.6,-,N/A,Snow,Light Snow,140,2013-03-25 11:18:00
5:38 AM,5.0,1.4,85,30.18,10.0,SSE,8.1,-,N/A,,Mostly Cloudy,160,2013-03-25 11:38:00
5:56 AM,3.2,1.4,92,30.18,10.0,SSE,6.9,-,N/A,,Mostly Cloudy,150,2013-03-25 11:56:00
6:18 AM,5.0,1.4,85,30.19,10.0,South,4.6,-,N/A,,Mostly Cloudy,170,2013-03-25 12:18:00
6:38 AM,8.6,5.0,85,30.20,10.0,South,3.5,-,N/A,,Overcast,180,2013-03-25 12:38:00
6:56 AM,12.2,10.4,92,30.20,5.0,South,3.5,-,N/A,Snow,Light Snow,170,2013-03-25 12:56:00
9:50 AM,17.6,15.8,93,30.22,10.0,SW,5.8,-,N/A,,Partly Cloudy,220,2013-03-25 15:50:00
11:50 AM,24.8,12.2,59,30.22,20.0,Calm,Calm,-,N/A,,Clear,0,2013-03-25 17:50:00
2:48 PM,30.2,8.6,40,30.19,30.0,WSW,4.6,-,N/A,,Partly Cloudy,250,2013-03-25 20:48:00
3:48 PM,30.2,10.4,44,30.19,30.0,South,5.8,-,N/A,,Partly Cloudy,190,2013-03-25 21:48:00
5:52 PM,30.2,12.2,47,30.18,30.0,SSE,5.8,-,N/A,,Partly Cloudy,160,2013-03-25 23:52:00
6:48 PM,26.6,15.8,64,30.18,40.0,South,4.6,-,N/A,,Partly Cloudy,180,2013-03-26 00:48:00
8:58 PM,17.6,10.4,73,30.20,10.0,South,5.8,-,N/A,,Clear,180,2013-03-26 02:58:00
9:17 PM,19.4,10.4,68,30.20,10.0,South,9.2,-,N/A,,Clear,190,2013-03-26 03:17:00
9:38 PM,17.6,8.6,68,30.19,10.0,South,8.1,-,N/A,,Clear,180,2013-03-26 03:38:00
9:58 PM,19.4,8.6,63,30.19,10.0,South,10.4,-,N/A,,Clear,190,2013-03-26 03:58:00
10:18 PM,19.4,8.6,63,30.19,10.0,South,11.5,-,N/A,,Clear,180,2013-03-26 04:18:00
10:38 PM,19.4,6.8,58,30.19,10.0,South,11.5,-,N/A,,Clear,190,2013-03-26 04:38:00
10:57 PM,19.4,8.6,63,30.18,10.0,South,11.5,-,N/A,,Clear,180,2013-03-26 04:57:00
11:18 PM,21.2,10.4,63,30.18,10.0,South,12.7,-,N/A,,Clear,180,2013-03-26 05:18:00
11:38 PM,21.2,10.4,63,30.18,10.0,South,9.2,-,N/A,,Clear,180,2013-03-26 05:38:00
11:58 PM,17.6,10.4,73,30.17,10.0,South,9.2,-,N/A,,Clear,180,2013-03-26 05:58:00